AKDT,Max TemperatureF,Mean TemperatureF,Min TemperatureF,Max Dew PointF,MeanDew PointF,Min DewpointF,Max Humidity, Mean Humidity, Min Humidity, Max Sea Level PressureIn, Mean Sea Level PressureIn, Min Sea Level PressureIn, Max VisibilityMiles, Mean VisibilityMiles, Min VisibilityMiles, Max Wind SpeedMPH, Mean Wind SpeedMPH, Max Gust SpeedMPH,PrecipitationIn, CloudCover, Events, WindDirDegrees
2012-10-1,54,50,46,54,44,35,100,81,56,30.43,29.96,29.66,10,8,2,18,9,29,0.24,6,Rain,291
2012-10-2,52,46,39,40,38,35,89,74,57,30.58,30.56,30.46,10,10,10,15,7,,0.13,0,,319
2012-10-3,51,46,42,43,41,39,93,82,68,30.56,30.53,30.51,10,10,10,7,2,,0.09,7,,132
2012-10-4,53,44,37,47,42,36,97,84,63,30.52,30.50,30.48,10,10,10,12,3,,0.03,5,,309
2012-10-5,60,54,50,52,50,45,93,84,75,30.49,30.42,30.35,10,10,10,17,13,,0.00,4,,331
2012-10-6,60,56,52,51,50,49,93,84,72,30.35,30.31,30.27,10,10,10,16,13,,0.00,0,,319
2012-10-7,61,55,50,50,49,46,96,82,64,30.27,30.19,30.10,10,10,10,17,10,23,0.00,0,,314
2012-10-8,57,54,51,48,47,46,86,78,67,30.10,30.05,30.02,10,10,10,17,13,24,0.00,0,,328
2012-10-9,53,50,46,48,47,46,100,94,83,30.09,30.06,30.02,10,9,2,10,7,,0.00,6,,327
2012-10-10,53,50,48,47,45,43,96,87,69,30.09,30.04,29.95,10,10,10,9,3,,0.00,8,,143
2012-10-11,51,50,48,48,47,46,100,92,82,29.95,29.71,29.44,10,8,3,13,7,20,0.67,8,Rain,158
2012-10-12,55,52,48,52,50,47,100,97,83,29.47,29.41,29.33,10,6,3,18,10,25,1.10,8,Rain,140
2012-10-13,55,52,50,52,48,38,100,86,51,29.80,29.65,29.34,10,10,3,20,8,28,0.21,7,Rain,137
2012-10-14,54,51,48,51,47,40,97,85,59,29.54,29.21,29.02,10,8,4,25,12,41,1.15,8,Rain,141
2012-10-15,50,47,44,48,46,42,100,93,86,29.58,29.33,29.04,10,8,3,24,11,31,1.41,8,Rain,141
2012-10-16,46,44,42,42,40,38,93,85,73,30.05,29.68,29.23,10,10,10,12,4,,0.08,7,Rain,152
2012-10-17,45,42,39,43,40,37,100,91,82,30.07,29.84,29.65,10,8,3,31,11,40,2.45,8,Rain,150
2012-10-18,46,42,36,38,36,33,97,87,61,29.92,29.81,29.67,10,10,10,10,6,,0.00,4,Rain,257
2012-10-19,39,34,30,37,34,30,100,97,92,29.68,29.66,29.65,10,7,0,6,3,,0.47,7,Fog-Rain-Snow,160
2012-10-20,45,38,32,36,33,30,100,88,63,29.82,29.74,29.67,10,10,10,7,2,,0.00,4,,311
2012-10-21,46,38,32,30,24,18,87,57,35,29.99,29.92,29.83,10,10,10,8,3,,0.00,1,,308
2012-10-22,46,38,30,23,18,14,69,50,28,29.99,29.94,29.89,10,10,10,8,3,,0.00,0,,300
2012-10-23,46,38,30,28,19,16,69,52,30,30.04,29.95,29.89,10,10,10,7,5,,0.00,0,,305
2012-10-24,44,36,28,27,21,15,82,61,32,30.28,30.15,30.05,10,10,10,9,3,,0.00,2,,329
2012-10-25,44,34,26,26,22,19,78,65,38,30.35,30.32,30.27,10,10,10,5,1,,0.00,1,,234
2012-10-26,42,35,27,27,25,22,89,64,49,30.27,30.16,30.04,10,10,10,8,2,,0.00,4,,311
2012-10-27,39,32,26,27,23,21,92,67,51,30.04,29.87,29.76,10,10,10,9,3,,0.00,5,,300
2012-10-28,39,34,32,21,20,19,61,56,50,29.83,29.80,29.75,10,10,10,12,8,,0.00,5,,303
2012-10-29,36,33,28,18,16,15,64,53,44,30.00,29.82,29.73,10,10,10,13,10,,0.00,3,,303
2012-10-30,37,29,21,23,20,16,86,71,50,30.08,30.01,29.86,10,10,10,8,2,,0.00,0,,298
2012-10-31,39,30,21,25,20,17,89,71,46,29.83,29.77,29.73,10,10,10,5,1,,0.00,0,,220